Retour au catalogue

STARLINK-30762

ActifCommunicationsVLEO
NORAD 58197·PAYLOAD·🇺🇸 United States

Lancé Oct 30, 2023 depuis Cape Canaveral Space Force Station

Loading…

Prochains Passages (prochaines 24 heures)

TLE

FraisSource: CelesTrak SupGP

Époque: Sep 15, 2026, 02:35 UTC

1 58197C 23167Y   26258.10812500  .00062525  00000+0  22660-2 0  2584
2 58197  42.9996 153.9795 0001354 255.3907 349.2549 15.27528253    11

Suivez STARLINK-30762 en temps réel avec AllMySat

Download on the App Store